{"data":{"norad_id":60271,"intl_designator":"2024-131S","name":"STARLINK-32164","alt_names":[],"object_type":"PAYLOAD","status":"ACTIVE","operator":null,"country":"US","launch_date":"2024-07-27","launch_site_code":"AFETR","launch_vehicle":null,"mission":null,"orbit_class":"UNKNOWN","rcs_meters":null,"size_class":null,"mass_kg":null,"dimensions":null,"purposes":["comms"],"wikipedia_slug":null,"has_3d_model":false,"image_url":null,"decayed_at":null,"tle_current":{"epoch":"2026-09-21T21:34:14.056320Z","epoch_age_seconds":60414,"freshness":"FRESH","line1":"1 60271U 24131S   26264.89877380 -.00000378  00000+0 -61980-7 0  9997","line2":"2 60271  53.1591 219.3197 0001347  88.0001 272.1156 15.34386760121681","mean_motion":15.3438676,"eccentricity":0.0001347,"inclination_deg":53.1591,"raan_deg":219.3197,"arg_perigee_deg":88.0001,"mean_anomaly_deg":272.1156,"bstar":-6.198e-8,"rev_number":12168,"period_min":93.848567879978,"perigee_km":461.82112607916,"apogee_km":463.6640590414,"semimajor_km":6840.8795925603,"source":"CELESTRAK","updated_at":"2026-09-22T09:00:49.189578Z"}}}